Regional Weather Roundup
Issued by NWS Northern Indiana

Home | Current Version | Previous Version | Graphics & Text | Print | Product List | Glossary On
Versions: 1 2 3 4 5 6 7 8 9 10 11 12 13 14 15 16 17 18 19 20 21 22 23 24 25 26 27 28 29 30 31 32 33 34 35 36 37 38 39 40 41 42 43 44 45 46 47 48 49 50
000
ASUS43 KIWX 182300
RWRIWX

KIWX WEATHER ROUNDUP
NATIONAL WEATHER SERVICE NORTHERN INDIANA
700 PM EDT THU SEP 18 2014

NOTE: "FAIR" INDICATES FEW OR NO CLOUDS BELOW 12,000 FEET WITH NO
SIGNIFICANT WEATHER AND/OR OBSTRUCTIONS TO VISIBILITY.

* THESE STATIONS ARE NOT UNDER NWS QUALITY CONTROL. THEY ALSO MAY NOT
  REPORT WEATHER SUCH AS PRECIPITATION OR FOG.

INZ001>027-190000-
NORTHERN INDIANA

CITY           SKY/WX    TMP DP  RH WIND       PRES   REMARKS
GARY*          PTCLDY    63  57  82 NE9       30.12S
VALPARAISO     CLEAR     65  53  65 N6        30.10S
SOUTH BEND     MOCLDY    70  49  47 VRB3      30.11S
ELKHART*       CLEAR     68  48  49 NE6       30.12R
GOSHEN         CLEAR     68  52  56 NE5       30.10S
WARSAW*        PTCLDY    68  52  56 CALM      30.10S
ANGOLA*        CLEAR     66  57  72 NE6       30.12R
FORT WAYNE     PTCLDY    67  51  56 E6        30.10S
PERU/GRISSOM   CLEAR     68  53  56 E8        30.09R

$$
INZ028>050-190000-
CENTRAL INDIANA

CITY           SKY/WX    TMP DP  RH WIND       PRES   REMARKS
LAFAYETTE      CLEAR     69  49  48 E10       30.07R
KOKOMO*        CLEAR     68  48  49 E8        30.09R
MUNCIE*        CLEAR     67  47  48 E8        30.09R
INDIANAPOLIS   CLEAR     70  46  42 E9        30.06S

$$
MIZ043>046-050>051-056>058-064>065-071>073-077>080-190000-
SOUTHWEST LOWER MICHIGAN

CITY           SKY/WX    TMP DP  RH WIND       PRES   REMARKS
BATTLE CREEK   CLEAR     65  52  62 NE10      30.14R
BENTON HARBOR  CLEAR     63  51  65 VRB3      30.11S
COLDWATER*     CLEAR     66  51  59 N6        30.12S
HILLSDALE*     CLEAR     65  50  57 NE3       30.13R
HOLLAND        CLEAR     66  53  63 NW5       30.13S
GRAND RAPIDS   PTCLDY    61  54  77 E8        30.15S
KALAMAZOO      CLEAR     67  49  52 E3        30.13S
STURGIS*       CLEAR     64  52  63 NE6       30.11S
THREE RIVERS*  FAIR      67  50  54 NE5       30.12S

$$
OHZ001>008-015>018-024>025-190000-
NORTHWEST OHIO

CITY           SKY/WX    TMP DP  RH WIND       PRES   REMARKS
DEFIANCE       PTCLDY    67  49  52 NE5       30.11R
FINDLAY        CLEAR     68  49  50 NE12      30.10S
TOLEDO EXPRESS CLEAR     65  52  62 E8        30.12S
TOLEDO METCALF CLEAR     64  52  64 E7        30.13S
LIMA           CLEAR     68  50  52 NE7       30.10R

$$
&&



USA.gov is the U.S. government's official web portal to all federal, state and local government web resources and services.